Theta_e
318 319 320 321 326 324 322 323 321 321 321 320 319 321 320 320 319 320 317 317 319 319 324 328 330 331 334 334 336 335 334 333 332 332 330 327 323 319 317 314 312 312 313 313 327 330 335 339 338
319 320 322 321 323 322 322 320 320 320 319 317 318 318 319 320 319 319 319 318 318 319 322 325 325 329 332 334 333 334 334 332 331 331 330 327 322 319 315 313 312 310 310 311 325 331 335 339 334
318 321 323 322 321 322 321 320 319 318 316 317 318 316 317 318 316 316 315 314 314 316 319 319 320 320 322 330 334 334 334 333 331 330 329 328 320 316 315 317 328 319 310 311 323 332 334 336 332
318 319 317 321 320 320 320 319 317 318 317 315 315 317 315 316 315 315 314 314 313 313 317 315 318 320 322 329 332 334 334 333 331 330 329 323 320 319 330 326 327 324 320 313 328 332 334 335 333
317 317 321 321 320 319 318 317 315 317 317 317 314 317 315 315 314 313 313 312 312 313 313 316 318 318 321 324 328 331 332 333 332 331 329 325 333 329 330 329 327 327 327 316 330 332 335 335 334
318 317 321 321 319 318 318 316 315 316 316 315 313 315 315 315 314 313 313 312 311 312 313 314 316 317 317 319 323 327 332 333 332 331 329 326 326 328 328 327 326 328 331 320 330 332 335 336 335
320 320 320 319 319 319 318 313 316 316 316 316 313 316 316 314 314 313 312 312 312 311 312 314 315 316 316 314 316 324 331 333 332 330 328 328 327 327 328 327 326 328 331 324 328 332 336 336 336
317 319 320 319 319 319 317 314 313 314 317 313 311 317 317 314 313 313 313 312 312 312 311 311 312 313 313 313 313 320 331 332 332 330 329 329 328 327 326 327 325 327 332 326 325 332 336 335 335
315 320 320 319 318 319 315 316 314 313 313 312 312 313 312 313 313 313 312 314 314 312 311 312 312 313 314 315 315 319 331 332 331 330 329 329 327 326 325 326 324 326 333 329 329 333 335 333 328
318 320 319 317 317 318 317 314 313 314 316 315 314 313 311 311 310 310 311 311 312 314 313 311 312 313 315 315 320 321 329 331 330 329 329 328 327 326 323 322 323 325 332 331 332 335 332 333 323
316 320 315 315 314 314 315 315 311 314 317 313 311 312 312 312 310 308 307 307 307 309 311 314 310 312 315 317 320 324 326 328 328 329 329 328 327 325 322 322 323 326 330 333 334 331 332 327 323
317 315 314 314 313 313 314 312 314 312 314 311 311 312 312 308 305 304 305 305 305 306 307 309 310 310 311 315 323 323 326 325 328 329 328 328 325 324 322 322 323 326 329 331 328 325 325 323 322
315 315 312 311 311 311 311 313 311 312 311 312 312 311 308 304 303 303 303 304 304 304 306 307 308 309 311 317 316 321 324 327 327 327 327 327 323 322 322 321 322 324 328 328 327 325 324 322 323
312 312 312 310 310 309 312 312 310 312 312 310 311 308 304 303 303 302 301 302 302 303 304 305 307 307 314 319 320 319 322 325 328 328 327 326 322 322 323 322 323 324 326 328 325 321 320 320 321
310 313 315 313 312 311 310 314 313 312 310 309 309 305 303 302 302 301 301 301 302 302 302 304 305 306 309 315 320 321 325 321 329 328 328 326 323 323 322 322 323 324 325 325 323 319 318 320 319
313 314 314 314 312 309 313 313 314 311 307 309 307 304 302 301 301 301 300 300 300 301 301 300 303 306 310 314 318 321 320 323 322 327 328 327 325 323 322 320 321 323 324 325 322 319 318 321 320
316 315 313 312 313 312 313 315 313 308 307 306 304 302 301 301 300 300 299 298 298 298 299 299 298 301 306 313 314 317 317 319 320 322 326 326 326 324 322 320 319 321 323 323 319 319 317 318 321
317 316 313 313 313 313 314 314 312 306 305 303 302 300 300 300 300 299 297 297 297 297 297 298 299 299 300 305 311 314 317 317 320 320 322 325 324 325 323 322 320 321 322 322 318 318 318 316 319
313 314 314 312 313 312 312 311 308 306 301 301 300 298 298 299 299 299 296 296 296 297 296 296 298 301 301 301 305 308 314 318 318 318 320 321 324 324 324 322 322 321 321 322 319 317 317 319 318
313 312 311 313 312 309 310 308 306 304 299 298 299 297 297 297 299 298 296 294 295 297 296 296 298 299 301 304 302 305 308 311 318 318 319 318 322 324 324 324 323 319 322 322 320 318 318 319 318
310 311 312 311 308 308 307 306 306 303 300 298 297 297 296 296 296 296 294 294 295 296 295 295 296 298 301 298 301 302 304 308 312 319 318 318 318 323 324 323 322 319 321 321 320 316 318 318 318
311 308 308 306 306 306 306 305 307 306 301 298 297 296 296 295 294 294 294 293 294 295 294 294 295 296 299 300 297 296 301 305 307 310 319 317 316 315 322 323 321 320 321 321 319 316 316 317 317
311 305 305 305 305 306 306 307 309 308 301 297 297 296 295 294 293 293 293 293 293 294 292 293 294 295 295 299 299 297 295 301 306 307 311 318 318 318 320 322 320 320 321 320 319 316 316 315 315
302 304 304 305 306 307 304 300 303 301 297 297 296 295 294 293 293 293 292 292 292 293 292 292 293 293 294 295 299 297 296 295 304 306 310 315 318 318 318 321 319 318 319 319 319 316 315 313 314
302 304 304 306 308 307 302 299 301 297 296 296 296 294 293 293 293 292 292 291 292 292 291 291 292 292 293 293 296 298 297 294 296 304 307 310 316 318 319 319 319 317 318 319 320 318 314 313 315
303 305 301 300 303 303 300 299 301 297 296 295 294 293 292 292 291 291 291 291 291 291 291 291 291 291 292 292 293 296 296 295 294 301 304 307 309 317 317 319 320 318 317 318 317 316 315 313 316
304 303 300 298 298 299 299 300 300 297 296 295 294 292 292 291 291 291 291 291 291 291 291 290 290 291 291 292 292 294 296 295 293 298 300 303 306 307 318 318 317 319 318 317 318 316 315 315 312
297 298 299 299 297 297 298 297 297 296 295 294 293 292 291 291 291 291 291 290 290 290 290 289 289 290 290 291 291 293 295 295 294 294 299 300 304 305 308 318 315 319 317 317 318 317 316 314 312
296 296 295 294 294 296 295 297 296 295 295 293 292 291 291 291 291 290 290 289 288 287 287 287 288 289 290 291 291 292 293 295 293 293 294 296 300 304 307 315 317 317 317 317 318 318 318 315 313
295 296 294 293 293 294 294 294 296 295 294 292 291 291 291 290 290 289 288 287 285 282 280 279 279 281 283 286 289 292 292 294 295 294 294 293 298 302 307 308 316 317 318 317 317 318 317 317 317
Wind_Speed
6 3 3 1 3 2 2 3 3 2 2 2 2 4 6 10 7 10 8 12 9 9 10 12 15 17 19 19 19 18 18 18 17 14 14 15 17 19 19 18 17 17 17 18 18 18 20 24 24
4 3 3 1 2 2 4 1 3 5 4 3 5 8 9 13 13 15 19 17 17 12 10 13 14 16 20 22 21 21 21 21 19 17 16 15 16 17 17 16 15 15 17 18 20 19 22 25 27
3 3 2 0 1 4 3 2 6 5 5 5 4 4 7 6 7 7 16 17 14 14 17 17 17 19 21 24 25 23 23 22 22 19 17 17 15 15 15 14 13 15 17 19 22 22 25 28 28
2 1 2 1 3 2 2 5 6 6 1 4 4 10 7 13 11 14 23 22 18 16 18 20 23 24 25 27 27 26 26 25 24 22 19 17 16 16 15 15 15 15 17 20 23 24 27 30 29
2 2 1 1 1 0 3 4 3 4 4 4 3 7 8 12 11 13 17 19 20 21 21 22 23 24 26 26 28 28 28 26 26 24 22 19 17 18 18 15 15 16 19 23 25 26 29 32 31
2 1 2 2 3 2 3 2 3 4 5 6 4 8 7 9 12 15 17 17 19 22 23 23 24 25 27 27 28 29 29 28 27 26 25 22 19 20 20 18 17 16 19 25 27 28 32 34 34
1 2 0 1 2 2 2 2 5 9 10 9 4 6 7 12 22 23 21 19 20 22 24 25 26 27 29 30 31 32 30 29 28 27 26 24 21 22 21 19 18 17 19 27 29 29 32 33 35
2 2 4 3 1 2 2 1 4 5 9 9 3 5 16 22 27 27 28 26 24 23 25 26 28 29 29 30 32 34 34 31 29 28 27 25 23 23 22 20 19 18 20 29 31 31 34 31 32
1 2 2 1 2 5 2 6 4 8 9 7 5 11 19 29 25 27 27 28 29 28 28 30 29 31 29 28 29 32 35 33 32 30 28 25 24 24 23 21 19 18 19 29 32 34 37 35 29
1 2 3 1 2 7 14 7 9 6 15 6 12 16 21 28 24 23 24 24 23 23 25 29 35 35 32 30 30 33 36 35 33 32 31 27 25 25 24 21 19 19 18 27 34 42 40 37 35
1 2 3 0 3 5 12 12 2 8 9 15 17 25 28 27 25 26 27 27 26 26 24 21 26 34 37 35 34 35 37 35 35 34 32 29 27 28 25 22 20 21 21 24 29 45 45 35 39
5 4 3 1 1 6 10 9 9 4 11 13 16 20 22 23 27 30 30 32 35 34 30 24 23 25 34 39 38 38 38 38 37 37 34 32 29 30 27 24 22 25 23 28 20 9 18 20 21
3 4 2 4 8 7 9 8 3 3 9 20 24 21 19 22 25 26 27 29 34 40 42 33 24 23 25 34 42 43 42 40 39 38 36 33 33 33 31 28 26 27 29 33 23 23 25 23 25
3 11 15 2 5 2 5 6 4 7 19 26 18 15 19 21 23 26 32 33 36 37 41 43 36 22 22 27 34 42 46 41 40 39 38 36 35 36 34 32 30 29 29 29 28 25 25 24 24
4 7 6 6 4 5 5 4 2 9 25 19 14 17 19 21 23 28 29 32 35 37 40 40 40 39 22 22 31 36 40 44 44 43 41 39 37 37 34 33 33 33 33 28 25 23 22 25 29
3 3 6 7 5 8 11 9 12 21 21 14 15 16 18 20 22 25 31 34 36 36 38 41 38 34 31 20 24 30 35 39 44 45 45 42 39 38 36 35 35 36 36 33 24 32 32 31 30
3 9 14 11 3 3 5 14 12 24 14 16 16 16 18 17 22 27 32 35 36 36 38 39 41 37 31 23 21 28 32 37 43 46 43 45 42 41 40 39 36 35 37 37 33 35 37 35 35
12 10 10 19 6 12 8 12 18 14 19 14 14 16 22 24 21 25 32 33 35 37 40 37 35 34 32 27 21 24 30 35 40 42 48 50 45 45 44 42 40 39 40 41 39 40 40 44 38
8 12 19 20 17 11 13 18 19 10 13 14 16 20 22 22 19 26 32 32 35 33 37 38 37 31 30 28 26 25 28 32 37 42 49 50 50 49 47 45 42 42 43 45 43 42 49 48 46
11 16 19 12 5 13 19 17 6 12 14 14 14 23 25 27 24 30 38 41 38 32 35 37 33 33 33 30 28 28 32 30 34 40 45 45 50 52 49 48 46 45 45 46 44 54 50 50 49
13 10 11 14 18 17 15 11 3 13 10 16 15 21 26 30 32 35 38 42 35 31 35 37 36 34 31 36 35 33 40 33 29 34 41 44 46 53 52 48 48 46 46 49 47 47 52 51 48
10 7 11 18 19 15 16 9 5 13 6 13 17 23 28 34 39 39 43 42 40 36 42 38 35 33 34 32 37 36 30 36 37 36 41 44 46 51 47 49 49 47 48 48 51 49 54 53 52
4 11 13 20 22 14 3 6 3 11 8 15 20 24 30 40 44 43 42 46 46 39 47 43 38 34 38 33 29 34 38 34 40 35 34 45 46 52 53 53 50 50 50 49 55 55 57 55 53
8 9 21 9 5 5 9 5 8 6 4 11 20 29 39 46 44 44 47 49 46 43 50 46 41 39 37 36 33 32 38 39 38 38 30 34 50 50 50 53 52 52 52 52 55 61 60 57 49
8 10 7 5 3 6 8 10 8 8 7 12 20 33 42 43 40 47 48 48 49 50 53 48 43 45 40 39 36 34 34 39 38 35 30 34 36 47 53 54 56 54 54 54 56 63 67 62 56
2 2 3 7 6 16 15 7 3 9 9 17 25 35 38 39 46 48 49 50 49 52 50 51 46 48 44 41 42 35 33 39 42 33 25 31 43 45 54 57 58 57 55 55 55 60 56 59 58
5 5 3 4 2 6 6 5 10 7 14 20 30 37 36 43 48 51 54 52 52 53 51 53 52 51 46 42 44 41 33 34 42 36 31 29 30 40 55 60 55 60 56 56 57 61 58 53 49
3 4 2 2 4 7 10 19 8 14 16 25 32 37 42 48 52 55 61 58 57 54 54 52 51 49 46 43 42 44 38 34 38 38 35 34 29 32 28 64 58 65 59 58 60 59 61 61 52
4 4 2 0 4 4 7 9 6 13 12 27 33 39 43 50 52 55 57 56 53 50 43 38 36 38 39 41 41 42 41 36 41 40 35 37 33 29 47 50 61 61 64 61 61 61 61 60 60
9 8 7 4 5 8 8 14 12 4 25 31 35 39 45 53 54 56 53 50 49 54 56 52 50 52 49 41 32 41 43 38 34 35 36 36 38 35 42 28 60 68 69 66 63 64 63 61 63
Wind_Direction
25 55 123 115 222 249 57 71 322 265 262 216 189 233 285 287 276 294 290 293 302 304 245 230 225 227 224 223 226 229 232 235 240 245 256 256 249 246 249 252 252 244 234 222 210 211 210 202 197
39 90 94 225 298 36 72 37 316 344 321 300 259 257 267 283 268 271 284 289 281 270 252 233 230 232 233 232 230 231 233 233 238 242 255 253 249 245 248 251 246 241 232 222 208 211 208 200 199
51 111 203 189 39 37 12 5 326 324 293 253 276 274 291 262 284 274 295 304 288 266 252 253 247 245 236 237 238 236 237 235 237 244 251 249 246 239 239 247 248 243 232 220 208 210 207 202 201
2 161 76 287 48 110 335 358 324 317 322 221 269 286 270 277 288 292 300 298 289 273 252 252 253 247 241 237 236 238 239 237 235 241 248 242 236 231 232 233 238 239 232 219 207 210 206 203 202
323 259 192 138 67 277 242 293 285 295 298 264 243 301 280 301 321 323 306 298 284 275 268 252 248 246 242 240 242 240 238 239 237 239 242 240 234 236 232 234 233 234 230 217 210 211 206 203 202
262 289 252 334 7 338 285 259 281 288 293 282 258 280 269 310 330 325 322 305 287 278 268 255 250 246 244 243 243 242 240 238 238 238 238 236 237 236 236 236 234 233 228 215 211 212 206 205 202
313 286 302 251 305 293 127 209 289 334 309 318 262 278 299 325 332 326 323 318 298 283 273 265 255 249 249 248 246 243 237 239 239 239 238 237 238 240 240 237 232 233 222 212 209 210 209 207 207
156 224 172 209 346 317 150 245 303 293 322 298 257 318 333 329 324 328 328 321 315 301 280 270 264 257 252 252 247 241 235 237 241 240 239 240 242 240 242 238 232 231 220 208 209 210 209 206 191
51 212 217 244 203 348 340 331 341 287 282 288 268 313 331 346 345 344 336 333 328 315 297 283 270 263 256 253 247 238 235 238 237 239 239 241 243 238 234 229 228 225 219 206 207 206 202 202 184
250 249 169 21 22 322 318 325 324 301 327 337 337 355 339 349 349 350 349 337 327 312 309 296 276 267 259 250 244 240 237 239 238 236 236 241 240 233 226 227 229 223 219 212 205 196 204 196 175
293 273 137 47 310 318 309 335 21 311 358 10 345 345 347 360 6 9 4 359 347 333 316 299 289 274 262 251 245 239 236 238 240 236 237 236 233 225 222 225 223 222 215 201 185 175 190 184 172
282 264 212 113 70 317 302 324 337 313 351 353 358 354 3 14 23 24 21 18 14 7 347 320 292 275 267 257 247 243 237 237 235 239 236 230 226 224 225 224 218 218 208 191 209 193 174 164 170
249 310 58 149 298 275 291 314 310 1 16 355 346 5 25 36 31 26 20 15 13 15 11 353 319 289 266 258 254 249 240 238 238 236 233 229 229 226 228 229 222 222 216 218 226 187 196 169 175
311 294 294 129 137 155 337 317 328 50 357 353 6 48 62 44 34 26 21 14 10 7 11 7 359 318 284 260 255 249 251 239 238 234 230 230 230 229 229 227 217 216 216 195 178 168 178 174 180
299 303 315 131 93 146 289 314 127 14 347 351 46 72 51 39 29 23 15 9 7 7 5 5 2 359 317 279 262 259 247 250 238 237 230 230 227 230 224 223 213 212 212 196 203 179 172 182 180
275 229 345 350 29 148 347 299 334 341 343 56 85 59 40 32 24 17 10 4 2 358 359 359 358 357 351 302 272 259 254 250 243 239 234 229 226 226 225 222 219 211 214 203 189 182 170 177 179
19 320 327 326 342 44 343 296 320 345 20 86 68 52 36 21 17 13 6 2 1 356 351 349 350 348 346 336 298 270 262 255 251 243 235 231 229 225 225 222 223 217 211 200 193 182 184 177 178
306 311 307 309 292 341 308 284 318 12 99 89 65 37 21 11 9 6 359 357 355 352 352 346 344 342 338 333 321 297 272 260 255 250 244 237 231 229 224 226 225 218 213 203 194 187 188 186 185
296 297 304 311 329 339 325 317 331 82 86 70 49 28 11 3 357 354 354 351 348 351 354 352 344 340 337 331 327 320 298 272 256 254 248 246 233 231 226 226 224 220 215 206 200 196 188 186 182
309 305 308 307 323 334 318 322 74 110 79 57 45 16 11 3 351 350 350 347 345 344 349 350 344 339 337 332 315 313 316 287 269 261 246 248 246 233 228 224 225 219 214 207 205 194 186 186 184
310 309 317 304 317 296 331 300 111 125 73 41 33 13 8 4 352 344 345 345 340 337 340 340 336 331 330 333 327 292 287 305 283 258 246 250 244 236 227 225 222 218 216 208 202 196 191 187 185
299 354 311 312 321 312 339 286 322 181 49 25 14 6 1 354 349 345 342 343 339 333 336 330 330 329 323 326 328 336 302 297 305 275 248 253 241 244 229 223 220 217 216 209 197 196 197 192 185
329 330 307 302 294 311 294 240 205 231 356 4 3 356 351 347 342 339 337 335 332 323 331 326 323 319 322 315 315 319 331 293 291 291 275 243 247 240 239 217 215 216 216 211 203 195 196 201 198
322 330 308 293 283 251 132 351 252 338 31 1 356 352 347 341 335 333 331 330 328 320 322 321 314 314 310 315 304 309 316 325 286 295 277 262 237 234 236 229 216 216 215 214 207 201 197 198 205
359 350 318 307 276 282 170 327 308 102 44 14 358 350 336 332 331 327 327 326 322 320 318 317 309 307 305 306 302 300 307 315 314 293 281 272 247 227 221 232 215 215 214 213 213 206 200 202 205
113 167 239 278 302 295 296 221 174 141 16 7 354 338 329 330 328 324 324 321 318 317 313 312 306 302 301 299 302 294 296 305 316 291 291 288 270 235 230 223 218 215 211 212 217 208 210 203 209
149 218 37 268 210 279 255 239 192 40 351 347 336 334 330 331 327 324 321 318 314 313 309 310 305 302 298 294 299 293 287 293 308 296 297 290 278 274 219 222 218 212 211 211 210 212 205 202 203
265 109 164 183 279 289 283 298 271 353 341 337 337 334 333 329 326 324 320 316 315 313 310 309 305 302 298 293 292 289 287 286 300 306 299 294 270 271 292 223 217 216 211 211 212 208 202 200 199
161 178 146 9 251 264 295 290 27 341 341 335 330 330 329 323 321 318 318 317 318 317 318 317 315 310 307 298 291 285 282 277 291 300 295 299 290 286 246 220 214 220 213 211 212 209 205 203 207
231 197 179 197 225 236 286 277 301 281 339 328 325 326 324 320 321 321 321 319 320 315 313 311 308 301 296 295 296 289 279 274 279 287 295 301 289 271 232 266 218 209 213 211 212 211 209 208 210